• MPC Preparation (Info)

  • MPEC 2023-J119 : 2023 JJ1

    The following Minor Planet Electronic Circular may be linked-to from your own Web pages, but must not otherwise be redistributed electronically.

    A form allowing access to any MPEC is at the bottom of this page.


    Read MPEC 2023-J118 Read MPEC 2023-J120


    M.P.E.C. 2023-J119                                 Issued 2023 May 13, 10:25 UT
    
         The Minor Planet Electronic Circulars contain information on unusual
             minor planets, routine data on comets and natural satellites,
             and occasional editorial announcements.  They are published
        on behalf of Division F of the International Astronomical Union by the
              Minor Planet Center, Smithsonian Astrophysical Observatory,
                              Cambridge, MA 02138, U.S.A.
    			  
                 Prepared using the Tamkin Foundation Computer Network
    
                                  MPC@CFA.HARVARD.EDU
                URL https://www.minorplanetcenter.net/    ISSN 1523-6714
    
                                    2023 JJ1                                 
    
    
    Observations:
         K23J01J 1C2023 05 08.19228 11 08 55.65 +44 49 07.1                VEJ119G96
         K23J01J 1C2023 05 08.20349 11 10 06.89 +44 52 09.4                VEJ119G96
         K23J01J*1C2023 05 12.33722116 00 00.011+31 43 44.47         20.14GVEJ119G96
         K23J01J 1C2023 05 12.34193716 00 06.793+31 42 36.83         20.16GVEJ119G96
         K23J01J 1C2023 05 12.34666516 00 13.532+31 41 29.26         20.34GVEJ119G96
         K23J01J 1C2023 05 12.35140016 00 20.221+31 40 22.58         20.15GVEJ119G96
         K23J01J  C2023 05 12.38108316 01 01.260+31 33 09.77         20.2 GVEJ119H01
         K23J01J  C2023 05 12.38414216 01 05.564+31 32 25.91         20.6 GVEJ119H01
         K23J01J  C2023 05 12.39522916 01 21.160+31 29 47.10         20.8 GVEJ119H01
         K23J01J  C2023 05 12.40188216 01 30.509+31 28 11.79         20.2 GVEJ119H01
         K23J01J mC2023 05 12.42608616 02 05.104+31 22 33.92         20.50GVEJ119I52
         K23J01J mC2023 05 12.42646916 02 05.647+31 22 29.53         20.42GVEJ119I52
         K23J01J mC2023 05 12.42684816 02 06.140+31 22 23.92         20.48GVEJ119I52
         K23J01J mC2023 05 12.42722716 02 06.698+31 22 18.41         20.46GVEJ119I52
         K23J01J KC2023 05 13.05095516 15 49.93 +29 07 28.5          20.8 GXEJ119I93
         K23J01J KC2023 05 13.05563116 15 54.98 +29 06 32.7          20.7 GXEJ119I93
         K23J01J KC2023 05 13.06030116 16 00.02 +29 05 37.1          20.1 GXEJ119I93
    
    Observer details:
    G96 Mt. Lemmon Survey.  Observers R. A. Kowalski, G. J. Leonard.  Measurers B.
        Gray, D. Rankin, F. C. Shelly, E. J. Christensen, D. Fay, J. B. Fazekas,
        D. C. Fuls, A. R. Gibbs, A. D. Grauer, H. Groeller, J. K. Hogan, R. A.
        Kowalski, S. M. Larson, G. J. Leonard, R. L. Seaman, A. Serrano, K. W.
        Wierzchos.  1.5-m reflector + 10K CCD.
    H01 Magdalena Ridge Observatory, Socorro.  Observers W. H. Ryan, E. V. Ryan.
        Measurer W. H. Ryan.  2.4-m f/8.9 Ritchey-Chretien + CCD.
    I52 Steward Observatory, Mt. Lemmon Station.  Observer K. W. Wierzchos.
        Measurers E. J. Christensen, D. Fay, J. B. Fazekas, D. C. Fuls, A. R.
        Gibbs, A. D. Grauer, H. Groeller, J. K. Hogan, R. A. Kowalski, S. M.
        Larson, G. J. Leonard, D. Rankin, R. L. Seaman, A. Serrano, F. C. Shelly,
        K. W. Wierzchos.  1.0-m prime focus + CCD.
    I93 St Pardon de Conques.  Observer F. Losse.  0.40-m f/3.7 reflector + CCD.
    
    Orbital elements:
    2023 JJ1                                                 Earth MOID = 0.0062 AU
    Epoch 2023 Feb. 25.0 TT = JDT 2460000.5                 Veres                   
    M 348.99601              (2000.0)            P               Q                  
    n   0.22504723     Peri.  333.72447     -0.95707007     +0.26652179             
    a   2.6768268      Node   222.25195     -0.22703704     -0.93367954             
    e   0.6418388      Incl.    9.75638     -0.18019731     -0.23918330             
    P   4.38           H   26.02          G   0.15           U   8                  
    Residuals in seconds of arc
    230508 G96  0.4-  0.0     230512 H01  0.0   0.2+    230512 I52  0.2-  0.1-
    230508 G96  0.4+  0.0     230512 H01  0.1-  0.2+    230512 I52  0.2+  0.2-
    230512 G96  0.4-  0.2+    230512 H01  0.1-  0.2+    230513 I93  0.2-  0.2-
    230512 G96  0.3+  0.2-    230512 H01  0.0   0.2+    230513 I93  0.1-  0.0
    230512 G96  0.4+  0.4-    230512 I52  0.1+  1.0-    230513 I93  0.0   0.3+
    230512 G96  0.1-  0.5+    230512 I52  0.2+  0.1+
    
    Ephemeris:
    2023 JJ1                 a,e,i = 2.68, 0.64, 10                  q = 0.9587
    Date    TT    R. A. (2000) Decl.     Delta      r    Elong.  Phase     V
    2023 04 13    06 02 57.2 -03 15 24   0.1745  0.9591    70.7    99.4    25.7
    ...
    2023 04 28    06 35 05.0 +03 05 35   0.07434 0.9762    64.0   112.1    24.6
    ...
    2023 05 06    08 25 34.4 +27 48 43   0.02567 1.0032    77.3   101.3    21.8
    ...
    2023 05 12    15 50 43.4 +33 07 19   0.03271 1.0305   128.2    50.4    20.5
    2023 05 13    16 14 50.5 +29 18 50   0.03846 1.0356   130.5    47.9    20.8
    2023 05 14    16 31 20.0 +26 20 25   0.04456 1.0408   132.1    46.1    21.1
    ...
    2023 05 20    17 12 07.0 +17 19 36   0.08430 1.0751   137.1    39.8    22.4
    ...
    2023 05 28    17 26 17.2 +12 41 39   0.1405  1.1272   142.0    33.6    23.4
    ...
    2023 06 12    17 31 49.1 +07 55 33   0.2542  1.2398   148.8    25.1    24.7
    
    M. P. C. Staff               (C) Copyright 2023 MPC           M.P.E.C. 2023-J119
    


    Read MPEC 2023-J118 Read MPEC 2023-J120


    MPEC number:

    Enter an MPEC number in one of the following forms:

    • 1997-B01 (the full form)
    • J97B01 (the packed version of the full form)
    • B01 (the abbreviated form)